AGROMETEOROLOŠKI PORTAL
Vinorodna pokrajina

Temelj dobrega kmetovanja.

Pregled podatkov za lokacijo Ajdovščina, meteorološka postaja 109

Pregled senzorjev na lokaciji

ID Ime Zadnja
vrednost
Datum in čas
meritve
(lokalni čas)
Tip
senzorja
2540 Relativna zračna vlaga (2 m) (% RH) 46 % RH 16.4.2024 15:00 ARSO
2539 Temperatura (2 m) (°C) 19,1 °C 16.4.2024 15:00 ARSO
2544 Smer vetra (2 m) (°) 60 ° 16.4.2024 15:00 ARSO
2545 Hitrost vetra (2 m) (km/h) 10 km/h 16.4.2024 15:00 ARSO

Pregled podatkov zadnjih 24 ur

Zap.
št.
Datum in čas
(lokalni čas)
Ajdovščina
Relativna
zračna
vlaga
(2
m)
Temperatura
(2
m)
Smer
vetra
(2
m)
Hitrost
vetra
(2
m)
1 16.4.2024 15:00 46 19,1 60 10
2 16.4.2024 14:30 44 20,2 221 10
3 16.4.2024 14:00 50 19,5 158 5
4 16.4.2024 13:30 53 19,1 123 5
5 16.4.2024 13:00 52 19,2 174 8
6 16.4.2024 12:30 58 19 136 5
7 16.4.2024 12:00 58 19 145 3
8 16.4.2024 11:30 62 18,7 179 4
9 16.4.2024 11:00 63 18,4 223 4
10 16.4.2024 10:30 66 18,2 175 4
11 16.4.2024 10:00 74 17,3 224 2
12 16.4.2024 09:30 82 15,9 17 1
13 16.4.2024 09:00 86 14,7 157 1
14 16.4.2024 08:30 88 13,9 29 1
15 16.4.2024 08:00 89 13,1 251 0
16 16.4.2024 07:30 92 12,3 90 1
17 16.4.2024 07:00 94 11,2 255 1
18 16.4.2024 06:30 94 10,8 225 0
19 16.4.2024 06:00 94 10,7 257 0
20 16.4.2024 05:30 94 10,6 90 1
21 16.4.2024 05:00 94 10,3 67 0
22 16.4.2024 04:30 93 10,2 261 0
23 16.4.2024 04:00 92 10,4 314 0
24 16.4.2024 03:30 92 10,5 94 0
25 16.4.2024 03:00 90 10,8 243 0
26 16.4.2024 02:30 88 11,3 249 0
27 16.4.2024 02:00 86 11,9 299 1
28 16.4.2024 01:30 84 12,6 225 1
29 16.4.2024 01:00 81 13,1 252 1
30 16.4.2024 00:30 78 13,9 252 1
31 16.4.2024 00:00 74 14,8 191 1
32 15.4.2024 23:30 70 15,7 157 2
33 15.4.2024 23:00 66 16,9 155 1
34 15.4.2024 22:30 62 18 226 3
35 15.4.2024 22:00 58 18,7 204 1
36 15.4.2024 21:30 56 19,3 7 1
37 15.4.2024 21:00 50 20,4 225 5
38 15.4.2024 20:30 51 20,8 211 7
39 15.4.2024 20:00 52 21,1 223 6
40 15.4.2024 19:30 48 21,5 180 5
41 15.4.2024 19:00 43 21,9 250 4
42 15.4.2024 18:30 41 22,4 260 7
43 15.4.2024 18:00 40 22,9 254 5
44 15.4.2024 17:30 40 22,9 253 6
45 15.4.2024 17:00 38 23,2 243 10
46 15.4.2024 16:30 39 23,9 255 9